TimeEDT,TemperatureF,Dew PointF,Humidity,Sea Level PressureIn,VisibilityMPH,Wind Direction,Wind SpeedMPH,Gust SpeedMPH,PrecipitationIn,Events,Conditions,WindDirDegrees,DateUTC
12:56 AM,68.0,64.4,88,30.04,10.0,WSW,3.5,-,N/A,,Overcast,240,2012-10-15 04:56:00
1:56 AM,68.0,64.9,90,30.01,10.0,Calm,Calm,-,N/A,,Overcast,0,2012-10-15 05:56:00
2:56 AM,68.0,64.0,87,29.99,10.0,Calm,Calm,-,N/A,,Overcast,0,2012-10-15 06:56:00
3:56 AM,68.0,64.0,87,29.95,10.0,Calm,Calm,-,N/A,,Scattered Clouds,0,2012-10-15 07:56:00
4:56 AM,66.9,64.0,90,29.95,10.0,Calm,Calm,-,N/A,,Clear,0,2012-10-15 08:56:00
5:56 AM,66.2,64.4,94,29.94,10.0,SSW,4.6,-,N/A,,Scattered Clouds,210,2012-10-15 09:56:00
6:56 AM,66.0,63.0,90,29.93,10.0,SSW,3.5,-,N/A,,Mostly Cloudy,200,2012-10-15 10:56:00
7:56 AM,66.2,62.6,88,29.94,10.0,Calm,Calm,-,N/A,,Mostly Cloudy,0,2012-10-15 11:56:00
8:56 AM,70.0,63.0,78,29.94,10.0,SW,9.2,-,N/A,,Mostly Cloudy,220,2012-10-15 12:56:00
9:56 AM,73.0,64.9,76,29.93,10.0,SW,10.4,-,N/A,,Mostly Cloudy,220,2012-10-15 13:56:00
10:56 AM,73.9,66.0,76,29.89,10.0,SSW,9.2,-,N/A,,Mostly Cloudy,200,2012-10-15 14:56:00
11:56 AM,77.0,66.9,71,29.88,10.0,WSW,10.4,18.4,N/A,,Mostly Cloudy,240,2012-10-15 15:56:00
12:56 PM,78.1,64.9,64,29.84,10.0,SW,6.9,-,N/A,,Mostly Cloudy,230,2012-10-15 16:56:00
1:56 PM,78.8,64.4,61,29.82,10.0,West,13.8,23.0,N/A,Rain,Light Rain,280,2012-10-15 17:56:00
2:56 PM,79.0,64.9,62,29.79,10.0,WSW,12.7,-,0.00,,Scattered Clouds,250,2012-10-15 18:56:00
3:56 PM,80.1,63.0,56,29.77,10.0,West,11.5,23.0,0.00,,Scattered Clouds,260,2012-10-15 19:56:00
4:56 PM,80.1,60.1,50,29.77,8.0,West,15.0,-,N/A,,Scattered Clouds,260,2012-10-15 20:56:00
5:56 PM,79.0,57.0,47,29.76,10.0,West,13.8,-,N/A,,Scattered Clouds,280,2012-10-15 21:56:00
6:56 PM,71.6,55.4,57,29.78,10.0,West,6.9,-,N/A,,Scattered Clouds,280,2012-10-15 22:56:00
7:56 PM,71.1,53.1,53,29.81,10.0,WNW,10.4,-,N/A,,Partly Cloudy,290,2012-10-15 23:56:00
8:56 PM,70.0,48.9,47,29.83,10.0,WNW,10.4,-,N/A,,Clear,290,2012-10-16 00:56:00
9:56 PM,69.1,48.0,47,29.85,10.0,Calm,Calm,-,N/A,,Clear,0,2012-10-16 01:56:00
10:56 PM,66.9,45.0,45,29.86,10.0,NNW,4.6,-,N/A,,Clear,330,2012-10-16 02:56:00
11:56 PM,64.9,44.1,47,29.87,10.0,NNW,3.5,-,N/A,,Clear,340,2012-10-16 03:56:00